[[{"header":{"parameterUnit":"m.s-1","parameterCategory":1,"la1":30.2991,"la2":30.254,"lo1":-89.0895,"lo2":-89.0444,"dy":0.0017,"dx":0.0017,"nx":28,"ny":28,"refTime":"2024-07-15T03:00:00:Z","depth":0,"parameterNumber":2,"parameterNumberName":"U-component_of_WINDS"},"data":[0,0,0,0,0,0,0,0,0,0,0,0,0,0,0,0,0,0,0,0,0,0,0,0,0,0,0,0,0,0,0,0,0,0,0,0,0,0,0,0,0,0,0,0,0,0,0,0,0,0,0,0,0,0,0,0,0,0,1.482,1.4821,0,1.495,1.4952,1.4953,1.4981,1.498,1.4979,1.4978,1.5116,1.5121,1.5125,0,0,0,0,0,0,0,0,0,0,0,0,0,1.4599,1.4603,1.482,1.4821,1.4823,1.495,1.4952,1.4953,1.4981,1.498,1.4978,1.4977,1.5115,1.512,1.5126,0,0,0,0,0,0,0,0,0,0,0,0,0,1.4709,1.4604,1.482,1.4852,1.4856,1.4949,1.4952,1.4954,1.4981,1.498,1.4978,1.4977,1.5113,1.512,1.5127,1.5198,0,0,1.5148,1.5151,0,0,0,0,0,0,0,0,1.4702,1.4717,1.4846,1.485,1.4855,1.4947,1.4925,1.5036,1.4981,1.4934,1.4978,1.4976,1.5062,1.5073,1.5101,1.5205,1.5211,1.5148,1.5152,1.5155,1.5157,0,0,0,0,0,0,0,1.4695,1.4711,1.4872,1.4847,1.4853,1.4861,1.4875,1.4946,1.5005,1.4938,1.494,1.4955,1.5064,1.5094,1.5104,1.5213,1.5148,1.5154,1.5158,1.5161,1.5382,1.5383,0,0,0,0,0,0,1.4681,1.4705,1.4867,1.4875,1.4773,1.4866,1.4882,1.4919,1.5004,1.5015,1.4956,1.4956,1.5083,1.5096,1.5109,1.5198,1.5155,1.5162,1.5166,1.538,1.5382,1.5384,0,0,0,0,0,0,1.4676,1.4695,1.4862,1.4791,1.4813,1.4872,1.4913,1.4923,1.4952,1.5017,1.5029,1.4975,1.5082,1.5099,1.5175,1.5203,1.5165,1.5171,1.5378,1.5381,1.5383,1.5377,0,0,0,0,0,0,1.4669,1.4693,1.472,1.4791,1.4816,1.4925,1.4915,1.4926,1.4964,1.4964,1.5039,1.505,1.5082,1.5165,1.5182,1.5212,1.5177,1.5376,1.5379,1.5382,1.5375,1.5379,1.5382,0,0,0,0,0,1.4661,1.4715,1.4721,1.4741,1.4851,1.4927,1.4941,1.4976,1.4966,1.4994,1.5035,1.5047,1.5197,1.5172,1.5192,1.5224,1.5374,1.5378,1.5382,1.5373,1.5378,1.5382,0,0,0,0,0,0,1.4648,1.4725,1.4733,1.481,1.4861,1.4931,1.4968,1.4981,1.5037,1.5036,1.5078,1.5095,1.5168,1.5204,1.5175,1.5298,1.5285,1.5293,1.5272,1.5277,1.5281,1.5271,1.5182,0,0,0,0,0,1.4653,1.4707,1.4772,1.4834,1.4859,1.4909,1.4943,1.4965,1.5021,1.5043,1.509,1.5145,1.5204,1.5243,1.5301,1.538,1.5396,1.5412,1.5415,1.5418,1.5425,1.5468,1.5476,1.5397,1.5397,1.5397,0,0,1.4666,1.4715,1.4746,1.4832,1.4874,1.493,1.4927,1.4986,1.5028,1.5053,1.5127,1.5163,1.5227,1.5304,1.5341,1.5336,1.545,1.5423,1.5425,1.543,1.5473,1.548,1.5487,1.5399,1.5399,1.5399,0,0,1.4718,1.476,1.4816,1.4857,1.492,1.4953,1.4966,1.5034,1.5058,1.5133,1.5152,1.5203,1.5305,1.5349,1.5385,1.5451,1.5464,1.5469,1.5489,1.5531,1.5537,1.5543,1.5566,1.5574,1.5475,1.5475,1.5475,0,1.4726,1.4809,1.4843,1.4901,1.4938,1.496,1.5018,1.5057,1.5137,1.5162,1.5156,1.5282,1.5327,1.5415,1.543,1.5459,1.5476,1.5461,1.5533,1.5539,1.5545,1.5567,1.5576,1.5475,1.5475,1.5475,1.5475,0,1.4816,1.4873,1.4911,1.4985,1.5026,1.5083,1.5127,1.5165,1.5183,1.5217,1.5292,1.5346,1.5415,1.5437,1.5457,1.5528,1.5523,1.5524,1.5512,1.5552,1.5574,1.5583,1.5476,1.5475,1.5475,1.5475,0,0,1.4864,1.4954,1.4967,1.5001,1.5071,1.5117,1.5175,1.524,1.5272,1.5326,1.5376,1.546,1.5461,1.5502,1.5526,1.5563,1.5611,1.556,1.5562,1.5567,1.5692,1.569,1.57,1.562,1.5622,1.5623,1.5686,0,1.4924,1.5026,1.5058,1.5145,1.5198,1.5219,1.527,1.5319,1.5352,1.5402,1.5439,1.5498,1.5495,1.5519,1.5556,1.5597,1.5637,1.5593,1.5668,1.567,1.5651,1.5711,1.571,1.5767,1.5695,1.5697,1.5698,0,1.5008,1.506,1.5151,1.5214,1.5237,1.5282,1.5344,1.5392,1.5448,1.5469,1.5513,1.5534,1.5597,1.5581,1.5667,1.5637,1.5669,1.5693,1.5697,1.5705,1.5686,1.5721,1.5787,1.5795,1.5712,1.5711,1.571,0,1.5032,1.5127,1.5193,1.5221,1.5296,1.5326,1.5359,1.5414,1.5451,1.5505,1.553,1.5591,1.5625,1.5673,1.571,1.5695,1.5793,1.5781,1.5813,1.5812,1.5833,1.5831,1.5904,1.5854,1.5854,1.5854,1.5854,0,1.5096,1.5151,1.5205,1.5246,1.5308,1.5344,1.5404,1.5439,1.5487,1.5535,1.5558,1.5604,1.565,1.5702,1.5732,1.5798,1.5814,1.5833,1.584,1.5831,1.5828,1.5853,1.585,1.5856,1.5856,1.5855,1.5855,0,1.5134,1.5173,1.5246,1.531,1.5327,1.537,1.5425,1.5466,1.5499,1.556,1.5576,1.5628,1.569,1.5732,1.5812,1.5832,1.5904,1.5911,1.5884,1.5888,1.5917,1.5914,1.6009,1.6023,1.5963,1.5963,1.5964,0,1.5172,1.5214,1.5282,1.5315,1.5347,1.5401,1.5438,1.5475,1.5513,1.5579,1.5612,1.5675,1.5727,1.5825,1.587,1.5931,1.594,1.5968,1.5949,1.5938,1.594,1.5936,1.5941,1.5972,1.5972,1.5972,1.5973,0,1.5235,1.5251,1.5303,1.5361,1.5404,1.5452,1.55,1.5526,1.5572,1.5614,1.5676,1.5716,1.5796,1.5858,1.5923,1.5958,1.5973,1.5978,1.5989,1.598,1.5962,1.5971,1.5892,1.5976,1.5976,1.5976,1.5975,1.5975,1.5274,1.5312,1.5365,1.5422,1.5461,1.5505,1.5546,1.5583,1.5635,1.5702,1.5721,1.5786,1.584,1.5928,1.5965,1.6016,1.6014,1.6029,1.6033,1.6036,1.6036,1.5954,1.6028,1.6028,1.6028,1.6028,1.6028,0,1.5337,1.5372,1.5424,1.5489,1.5534,1.5542,1.5595,1.5632,1.5688,1.5737,1.5787,1.5858,1.5918,1.5968,1.603,1.6062,1.607,1.6077,1.6075,1.6083,1.6035,1.6019,1.6069,1.6069,1.6069,1.6069,1.6069,1.6069,1.5376,1.544,1.5463,1.5547,1.5582,1.5644,1.5674,1.5715,1.5753,1.5831,1.588,1.5911,1.5961,1.6026,1.6082,1.6095,1.6116,1.6121,1.6136,1.6091,1.6086,1.6082,1.6067,1.6126,1.6126,1.6179,1.618,1.618]},{"header":{"parameterUnit":"m.s-1","parameterCategory":1,"la1":30.2991,"la2":30.254,"lo1":-89.0895,"lo2":-89.0444,"dy":0.0017,"dx":0.0017,"nx":28,"ny":28,"refTime":"2024-07-15T03:00:00:Z","depth":0,"parameterNumber":3,"parameterNumberName":"V-component_of_WINDS"},"data":[0,0,0,0,0,0,0,0,0,0,0,0,0,0,0,0,0,0,0,0,0,0,0,0,0,0,0,0,0,0,0,0,0,0,0,0,0,0,0,0,0,0,0,0,0,0,0,0,0,0,0,0,0,0,0,0,0,0,3.1269,3.1268,0,3.1226,3.1226,3.1225,3.1241,3.1242,3.1243,3.1244,3.1194,3.1192,3.119,0,0,0,0,0,0,0,0,0,0,0,0,0,3.1356,3.1355,3.1269,3.1268,3.1268,3.1226,3.1226,3.1225,3.1241,3.1242,3.1244,3.1245,3.1195,3.1192,3.1189,0,0,0,0,0,0,0,0,0,0,0,0,0,3.1316,3.1354,3.1269,3.1271,3.1271,3.1227,3.1226,3.1225,3.1241,3.1243,3.1244,3.1245,3.1196,3.1192,3.1189,3.1138,0,0,3.1179,3.1177,0,0,0,0,0,0,0,0,3.1319,3.1313,3.1271,3.1271,3.127,3.1241,3.1238,3.1196,3.1241,3.1252,3.1244,3.1246,3.1208,3.1204,3.1192,3.1136,3.1134,3.1178,3.1176,3.1175,3.1174,0,0,0,0,0,0,0,3.1321,3.1315,3.1252,3.127,3.127,3.1272,3.1268,3.123,3.1222,3.1251,3.1252,3.1247,3.1208,3.1195,3.1191,3.1133,3.1179,3.1175,3.1173,3.1172,3.103,3.1029,0,0,0,0,0,0,3.1325,3.1317,3.1253,3.1251,3.1299,3.1269,3.1264,3.1249,3.1222,3.122,3.1246,3.1248,3.1201,3.1195,3.1189,3.1126,3.1175,3.1172,3.117,3.1032,3.103,3.1028,0,0,0,0,0,0,3.1327,3.1319,3.1255,3.1284,3.1276,3.1266,3.1248,3.1247,3.1235,3.1219,3.1217,3.1235,3.1202,3.1194,3.1151,3.1125,3.117,3.1167,3.1034,3.1031,3.1029,3.1001,0,0,0,0,0,0,3.133,3.132,3.1302,3.1284,3.1275,3.1219,3.1247,3.1245,3.123,3.1232,3.1208,3.1205,3.1202,3.1156,3.1147,3.1121,3.1164,3.1036,3.1033,3.103,3.1004,3.0998,3.0992,0,0,0,0,0,3.1333,3.1295,3.1301,3.1294,3.1253,3.1218,3.1212,3.1211,3.1228,3.1208,3.1198,3.1206,3.113,3.1151,3.1142,3.1114,3.1038,3.1034,3.103,3.1007,3.0999,3.0992,0,0,0,0,0,0,3.1309,3.1293,3.1299,3.1255,3.1238,3.122,3.1196,3.1203,3.1179,3.1182,3.1179,3.1174,3.1128,3.1117,3.1142,3.1062,3.1086,3.108,3.1071,3.1064,3.1058,3.106,3.1162,0,0,0,0,0,3.1299,3.1274,3.1261,3.1223,3.1214,3.1207,3.1191,3.1192,3.1173,3.1165,3.1151,3.113,3.1101,3.1082,3.1055,3.1003,3.0996,3.0979,3.0973,3.0968,3.0962,3.0931,3.0923,3.1015,3.1015,3.1015,0,0,3.1277,3.1265,3.1249,3.1218,3.1204,3.1176,3.12,3.117,3.1148,3.116,3.1118,3.1107,3.1083,3.1035,3.1013,3.1024,3.0936,3.0963,3.096,3.0956,3.0927,3.0918,3.091,3.1012,3.1013,3.1013,0,0,3.1222,3.1212,3.1179,3.1165,3.1145,3.1141,3.1133,3.1114,3.1108,3.1067,3.1074,3.1047,3.0998,3.098,3.0965,3.0903,3.0908,3.0894,3.0862,3.0832,3.0824,3.0818,3.0793,3.0785,3.0888,3.0888,3.0888,0,3.1197,3.1157,3.116,3.1129,3.1113,3.1125,3.109,3.1076,3.1047,3.1034,3.1048,3.0986,3.0971,3.0917,3.0902,3.089,3.0878,3.0896,3.0826,3.0819,3.0813,3.0789,3.078,3.0887,3.0887,3.0887,3.0887,0,3.1126,3.1098,3.1073,3.1047,3.1029,3.0995,3.099,3.0971,3.0974,3.0967,3.0923,3.0906,3.0874,3.0862,3.0863,3.0807,3.0815,3.0827,3.085,3.0802,3.078,3.0771,3.0884,3.0885,3.0885,3.0886,0,0,3.1054,3.103,3.1021,3.1008,3.0987,3.0964,3.093,3.0901,3.0884,3.0863,3.0832,3.0791,3.0802,3.0784,3.0783,3.0757,3.0706,3.0773,3.0772,3.0758,3.064,3.0629,3.0619,3.0711,3.0709,3.0708,3.0641,0,3.0996,3.0939,3.094,3.0886,3.0858,3.0869,3.0839,3.0821,3.0814,3.0787,3.0778,3.0747,3.0766,3.0755,3.073,3.0718,3.0682,3.0723,3.0679,3.0677,3.0682,3.0608,3.0596,3.0534,3.0633,3.0631,3.063,0,3.092,3.0899,3.0843,3.0824,3.0813,3.0786,3.0759,3.0735,3.0714,3.071,3.069,3.0693,3.0655,3.0682,3.0628,3.0656,3.0638,3.0629,3.0626,3.062,3.0649,3.0597,3.0515,3.0504,3.0617,3.0618,3.0619,0,3.087,3.0828,3.0788,3.0777,3.0755,3.0736,3.0725,3.0706,3.0688,3.0664,3.0651,3.0622,3.0605,3.0581,3.0575,3.0595,3.052,3.0547,3.0513,3.0513,3.0495,3.0496,3.0406,3.0488,3.0488,3.0488,3.0488,0,3.0804,3.0768,3.0765,3.074,3.07,3.0701,3.066,3.065,3.0633,3.0604,3.0612,3.0584,3.0579,3.055,3.0545,3.0499,3.0492,3.0486,3.0484,3.0484,3.0484,3.047,3.0473,3.0486,3.0486,3.0487,3.0487,0,3.074,3.0737,3.0694,3.0678,3.0672,3.0643,3.0627,3.0602,3.0596,3.0559,3.0551,3.0539,3.0505,3.0497,3.0456,3.0452,3.0398,3.0402,3.0405,3.0405,3.0371,3.0373,3.0267,3.0252,3.0346,3.0345,3.0344,0,3.0697,3.067,3.0651,3.0633,3.0622,3.0594,3.0576,3.0576,3.0556,3.053,3.0507,3.0474,3.0447,3.0391,3.0377,3.0345,3.0346,3.0312,3.0341,3.0341,3.0342,3.0343,3.0339,3.0305,3.0304,3.0303,3.0303,0,3.0619,3.0619,3.0595,3.0569,3.0548,3.0527,3.0507,3.0491,3.0487,3.0465,3.0431,3.041,3.0369,3.0334,3.0302,3.0288,3.0293,3.0294,3.0284,3.0281,3.0283,3.0279,3.0387,3.0295,3.0296,3.0297,3.0297,3.0297,3.0562,3.0538,3.0521,3.0492,3.0478,3.0459,3.0434,3.0425,3.0398,3.0365,3.0366,3.0328,3.0305,3.0263,3.0247,3.0215,3.0225,3.0212,3.0208,3.0204,3.0199,3.0291,3.0209,3.021,3.021,3.021,3.021,0,3.0483,3.0473,3.0447,3.0419,3.0396,3.0407,3.0385,3.0364,3.0331,3.0311,3.0285,3.0244,3.0211,3.0195,3.0162,3.0139,3.014,3.013,3.013,3.0126,3.0193,3.0204,3.0129,3.0129,3.0129,3.0129,3.0129,3.0129,3.0439,3.0398,3.0395,3.0346,3.0335,3.03,3.0286,3.0267,3.0251,3.0207,3.018,3.0171,3.0151,3.0116,3.0085,3.0081,3.0066,3.0054,3.0051,3.0113,3.0121,3.0129,3.0139,3.0052,3.0052,2.9985,2.9985,2.9984]}]]